User: anonymous   Login
Location: Theydon Bois
(51.6750°N, 0.1050°E)
Time: 19:11:15
(UTC+01:00)
Language:

H-2A R/B - Orbit

View from above orbital plane
View from above orbital plane
View from above satellite
View from above satellite

Ground track
Ground track

The orbit data is extracted from the following two-line orbital elements,

1 36105U 09066B   18142.82169459 0.00000690  00000-0  37657-4 0    06
2 36105  97.2987 166.1850 0029660 245.4583 114.5415 15.14009370    01
Epoch (UTC): 22 May 2018 19:43:14
Eccentricity: 0.0029660
inclination: 97.2987°
perigee height: 503 km
apogee height: 544 km
right ascension of ascending node: 166.1850°
argument of perigee: 245.4583°
revolutions per day: 15.14009370
mean anomaly at epoch: 114.5415°
orbit number at epoch: 0

The dashed part of the orbit path shows where the satellite is in the earth's shadow,  

DLR